World > North America > United States > North Carolina

Seward, North Carolina Regional Weather

Lat: 36.19N, Lon: 80.37W
Wx Zone: NCZ021
Warning FLW WEATHER ALERT - (More Info. Click Here) Warning
Feedback

Seward, NC Regional Weather

Expires:201907231100;;502813
ASUS42 KRAH 231010
RWRRAH
NORTH CAROLINA WEATHER ROUNDUP
NATIONAL WEATHER SERVICE RALEIGH NC
600 AM EDT TUE JUL 23 2019

NOTE: "FAIR" INDICATES FEW OR NO CLOUDS BELOW 12,000 FEET WITH NO
SIGNIFICANT WEATHER AND/OR OBSTRUCTIONS TO VISIBILITY.


NCZ021-022-025-041-071-084-088-231100-
CENTRAL NORTH CAROLINA
  
CITY           SKY/WX    TMP DP  RH WIND       PRES   REMARKS
CHARLOTTE      FAIR      75  71  87 SE5       29.90S                  
GREENSBORO     LGT RAIN  70  70 100 SW6       29.90S                  
WINSTON-SALEM  LGT RAIN  71  69  93 W3        29.92R                  
RALEIGH-DURHAM CLOUDY    72  71  97 W3        29.92R                  
FORT BRAGG     MOCLDY    77  75  92 S5        29.90S                  
FAYETTEVILLE   MOCLDY    78  75  90 S12       29.91R                  
BURLINGTON     FAIR      73  69  87 S3        29.90F                  
ROXBORO        NOT AVBL                                               
HENDERSON      HVY RAIN  69  68  96 CALM      29.92R                  
LOUISBURG      CLOUDY    72  70  94 S5        29.94R                  
LAURINBURG     FAIR      76  73  91 S5        29.92R                  
$$
 

SKY/WX - Weather  TMP - Temperature  DP - Dew Point  RH - Relative Humidity
WIND - Wind Direction/Speed PRES - Barometric Pressure VSB - Visibility
WCI - Wind Chill Index E13G22 Wind - East Wind 13 mph/Gusts of 22 mph